Home   Weather   Glyfada   Past weeks

Flag for Greece Past Weather in Glyfada, Greece — Yesterday and Last 2 Weeks

Now
52 °F

Passing clouds.


Feels Like: 52 °F
Forecast: 47 / 54 °F
Wind: No wind

Location: Eleftherios Venizelos International Airport

Current Time: Jan 18, 2017 at 8:27:39 pm

Latest Report: Jan 18, 2017 at 7:50 pm


Visibility: N/A

Pressure: 30.09 "Hg

Humidity: 77%

Dew Point: 45 °F

Location of GlyfadaLocation

Past Weather in Glyfada — Graph

°F

Glyfada Temperature Yesterday

Maximum temperature yesterday: 57 °F (at 1:50 pm)
Minimum temperature yesterday: 39 °F (at 7:50 am)
Average temperature yesterday: 48 °F

High & Low Weather Summary for the Past Weeks

 TemperatureHumidityPressure
High63 °F (Jan 5, 2:50 pm)100% (Jan 17, 4:50 am)30.21 "Hg (Jan 17, 4:50 am)
Low25 °F (Jan 9, 2:20 am)24% (Jan 15, 12:20 pm)29.53 "Hg (Jan 6, 3:50 am)
Average45 °F69%29.90 "Hg
* Reported Jan 3 7:20 pm — Jan 18 7:20 pm, Glyfada, Weather by CustomWeather, © 2017

Note: Actual official high and low records may vary slightly from our data, if they occured in-between our weather recording intervals... More about our weather records

Advertising

Glyfada Weather History for the Previous 24 Hours

Scroll right to see more
 ConditionsComfort  
Time TempWeatherWind HumidityBarometerVisibility
7:20 pm
Wed, Jan 18
52 °FPassing clouds.2 mph77%30.09 "HgN/A
6:50 pm52 °FPartly cloudy.3 mph77%30.09 "HgN/A
6:20 pm54 °FPartly cloudy.2 mph72%30.09 "HgN/A
5:50 pm52 °FPartly cloudy.6 mph77%30.07 "HgN/A
5:20 pm52 °FBroken clouds.3 mph82%30.07 "HgN/A
4:50 pm54 °FBroken clouds.6 mph77%30.07 "HgN/A
4:20 pm54 °FLight rain. Partly sunny.7 mph82%30.07 "Hg6 mi
3:50 pm55 °FLight rain. Partly sunny.8 mph72%30.07 "HgN/A
3:20 pm55 °FScattered clouds.5 mph72%30.07 "HgN/A
2:50 pm55 °FScattered clouds.6 mph72%30.07 "HgN/A
2:20 pm54 °FScattered clouds.9 mph72%30.07 "HgN/A
1:50 pm55 °FScattered clouds.10 mph72%30.07 "HgN/A
1:20 pm55 °FScattered clouds.6 mph72%30.07 "HgN/A
12:50 pm52 °FScattered clouds.6 mph82%30.07 "HgN/A
12:20 pm52 °FDrizzle. Partly sunny.1 mph82%30.09 "Hg6 mi
11:50 am52 °FBroken clouds.3 mph82%30.09 "HgN/A
11:20 am50 °FBroken clouds.3 mph88%30.09 "HgN/A
10:50 am48 °FLight rain. Broken clouds.10 mph87%30.09 "Hg5 mi
10:20 am48 °FHeavy rain. Broken clouds.13 mph87%30.09 "Hg4 mi
9:50 am48 °FLight rain. Partly sunny.1 mph87%30.09 "Hg5 mi
9:20 am48 °FBroken clouds.1 mph87%30.07 "HgN/A
8:20 am43 °FScattered clouds.No wind87%30.07 "HgN/A
7:50 am43 °FDrizzle. Broken clouds.2 mph87%30.04 "Hg6 mi
6:50 am41 °FPassing clouds.2 mph87%30.04 "HgN/A
6:20 am39 °FPassing clouds.2 mph87%30.04 "HgN/A
5:50 am39 °FPassing clouds.3 mph87%30.01 "HgN/A
5:20 am39 °FPassing clouds.2 mph87%30.01 "HgN/A
4:50 am41 °FPassing clouds.3 mph87%30.01 "HgN/A
4:20 am41 °FPassing clouds.3 mph87%30.01 "HgN/A
3:50 am41 °FPassing clouds.1 mph87%30.01 "HgN/A
3:20 am41 °FPassing clouds.No wind87%30.01 "HgN/A
2:50 am43 °FPassing clouds.2 mph87%30.01 "HgN/A
2:20 am43 °FPassing clouds.2 mph87%29.98 "HgN/A
1:50 am45 °FPassing clouds.3 mph87%29.98 "HgN/A
1:20 am43 °FPassing clouds.3 mph87%29.98 "HgN/A
12:50 am45 °FPassing clouds.2 mph87%29.98 "HgN/A
12:20 am46 °FPassing clouds.3 mph82%29.98 "HgN/A
11:50 pm
Tue, Jan 17
46 °FPassing clouds.No wind82%29.98 "HgN/A
11:20 pm45 °FPassing clouds.2 mph93%29.95 "HgN/A
10:50 pm43 °FPassing clouds.2 mph93%29.95 "HgN/A
10:20 pm43 °FPassing clouds.2 mph93%29.95 "HgN/A
9:50 pm46 °FPassing clouds.No wind87%29.95 "HgN/A
9:20 pm46 °FPassing clouds.3 mph87%29.95 "HgN/A
8:50 pm48 °FPassing clouds.1 mph82%29.95 "HgN/A
8:20 pm48 °FPassing clouds.3 mph82%29.92 "HgN/A
Weather by CustomWeather, © 2017

See weather overviewHow to use our weather pages